Year,Month,Day,Hour,Minute,Value (Times are PST for temperature in C)
2020,04,27,12,12,11.10
2020,04,27,12,13,11.10
2020,04,27,12,14,11.00
2020,04,27,12,15,11.00
2020,04,27,12,16,11.00
2020,04,27,12,17,10.90
2020,04,27,12,18,10.90
2020,04,27,12,19,10.90
2020,04,27,12,20,10.80
2020,04,27,12,21,10.90
2020,04,27,12,22,10.80
2020,04,27,12,23,10.80
2020,04,27,12,24,10.80
2020,04,27,12,25,10.80
2020,04,27,12,26,10.80
2020,04,27,12,27,10.80
2020,04,27,12,28,10.90
2020,04,27,12,29,10.90
2020,04,27,12,30,11.00
2020,04,27,12,31,11.00
2020,04,27,12,32,11.00
2020,04,27,12,33,10.90
2020,04,27,12,34,10.90
2020,04,27,12,35,10.90
2020,04,27,12,36,10.90
2020,04,27,12,37,10.90
2020,04,27,12,38,10.90
2020,04,27,12,39,10.80
2020,04,27,12,40,10.80
2020,04,27,12,41,10.80
2020,04,27,12,42,10.80
2020,04,27,12,43,10.80
2020,04,27,12,44,10.80
2020,04,27,12,45,10.80
2020,04,27,12,46,10.80
2020,04,27,12,47,10.80
2020,04,27,12,48,10.80
2020,04,27,12,49,10.80
2020,04,27,12,50,10.70
2020,04,27,12,51,10.70
2020,04,27,12,52,10.70
2020,04,27,12,53,10.70
2020,04,27,12,54,10.70
2020,04,27,12,55,10.70
2020,04,27,12,56,10.70
2020,04,27,12,57,10.70
2020,04,27,12,58,10.80
2020,04,27,12,59,10.80
2020,04,27,13,00,10.90
2020,04,27,13,01,10.80
2020,04,27,13,02,10.80
2020,04,27,13,03,10.70
2020,04,27,13,04,10.70
2020,04,27,13,05,10.70
2020,04,27,13,06,10.60
2020,04,27,13,07,10.60
2020,04,27,13,08,10.60
2020,04,27,13,09,10.50
2020,04,27,13,10,10.50
2020,04,27,13,11,10.50
2020,04,27,13,12,10.40
2020,04,27,13,13,10.40
2020,04,27,13,14,10.40
2020,04,27,13,15,10.50
2020,04,27,13,16,10.50
2020,04,27,13,17,10.60
2020,04,27,13,18,10.60
2020,04,27,13,19,10.70
2020,04,27,13,20,10.70
2020,04,27,13,21,10.80
2020,04,27,13,22,10.80
2020,04,27,13,23,10.80
2020,04,27,13,24,10.80
2020,04,27,13,25,10.80
2020,04,27,13,26,10.90
2020,04,27,13,27,10.90
2020,04,27,13,28,10.90
2020,04,27,13,29,10.90
2020,04,27,13,30,11.00
2020,04,27,13,31,11.00
2020,04,27,13,32,11.00
2020,04,27,13,33,11.00
2020,04,27,13,34,11.00
2020,04,27,13,35,11.00
2020,04,27,13,36,11.00
2020,04,27,13,37,11.10
2020,04,27,13,38,11.10
2020,04,27,13,39,11.10
2020,04,27,13,40,11.10
2020,04,27,13,41,11.00
2020,04,27,13,42,11.00
2020,04,27,13,43,11.00
2020,04,27,13,44,11.00
2020,04,27,13,45,11.00
2020,04,27,13,46,11.00
2020,04,27,13,47,11.00
2020,04,27,13,48,11.00
2020,04,27,13,49,11.10
2020,04,27,13,50,11.20
2020,04,27,13,51,11.30
2020,04,27,13,52,11.40
2020,04,27,13,53,11.40
2020,04,27,13,54,11.50
2020,04,27,13,55,11.60
2020,04,27,13,56,11.60
2020,04,27,13,57,11.70
2020,04,27,13,58,11.90
2020,04,27,13,59,12.10
2020,04,27,14,00,12.10
2020,04,27,14,01,12.10
2020,04,27,14,02,12.30
2020,04,27,14,03,12.20
2020,04,27,14,04,12.30
2020,04,27,14,05,12.30
2020,04,27,14,06,12.30
2020,04,27,14,07,12.40
2020,04,27,14,08,12.60
2020,04,27,14,09,12.70
2020,04,27,14,10,12.80
2020,04,27,14,11,13.00
2020,04,27,14,12,13.10
2020,04,27,14,13,13.10
2020,04,27,14,14,13.20
2020,04,27,14,15,13.30
2020,04,27,14,16,13.50
2020,04,27,14,17,13.50
2020,04,27,14,18,13.50
2020,04,27,14,19,13.60
2020,04,27,14,20,13.60
2020,04,27,14,21,13.70
2020,04,27,14,22,13.60
2020,04,27,14,23,13.50
2020,04,27,14,24,13.50
2020,04,27,14,25,13.40
2020,04,27,14,26,13.40
2020,04,27,14,27,13.50
2020,04,27,14,28,13.60
2020,04,27,14,29,13.60
2020,04,27,14,30,13.60
2020,04,27,14,31,13.60
2020,04,27,14,32,13.60
2020,04,27,14,33,13.50
2020,04,27,14,34,13.40
2020,04,27,14,35,13.30
2020,04,27,14,36,13.20
2020,04,27,14,37,13.10
2020,04,27,14,38,13.00
2020,04,27,14,39,12.90
2020,04,27,14,40,12.80
2020,04,27,14,41,12.70
2020,04,27,14,42,12.60
2020,04,27,14,43,12.50
2020,04,27,14,44,12.50
2020,04,27,14,45,12.50
2020,04,27,14,46,12.50
2020,04,27,14,47,12.40
2020,04,27,14,48,12.50
2020,04,27,14,49,12.50
2020,04,27,14,50,12.50
2020,04,27,14,51,12.50
2020,04,27,14,52,12.60
2020,04,27,14,53,12.60
2020,04,27,14,54,12.60
2020,04,27,14,55,12.80
2020,04,27,14,56,12.80
2020,04,27,14,57,12.80
2020,04,27,14,58,12.80
2020,04,27,14,59,12.90
2020,04,27,15,00,12.90
2020,04,27,15,01,12.80
2020,04,27,15,02,12.70
2020,04,27,15,03,12.70
2020,04,27,15,04,12.80
2020,04,27,15,05,12.80
2020,04,27,15,06,12.80
2020,04,27,15,07,12.90
2020,04,27,15,08,12.90
2020,04,27,15,09,12.90
2020,04,27,15,10,12.90
2020,04,27,15,11,12.90
2020,04,27,15,12,12.90
2020,04,27,15,13,12.90
2020,04,27,15,14,12.90
2020,04,27,15,15,12.90
2020,04,27,15,16,12.80
2020,04,27,15,17,12.80
2020,04,27,15,18,12.80
2020,04,27,15,19,12.80
2020,04,27,15,20,12.90
2020,04,27,15,21,13.00
2020,04,27,15,22,13.20
2020,04,27,15,23,13.30
2020,04,27,15,24,13.30
2020,04,27,15,25,13.40
2020,04,27,15,26,13.30
2020,04,27,15,27,13.20
2020,04,27,15,28,13.20
2020,04,27,15,29,13.20
2020,04,27,15,30,13.10
2020,04,27,15,31,13.10
2020,04,27,15,32,13.00
2020,04,27,15,33,12.80
2020,04,27,15,34,12.80
2020,04,27,15,35,12.80
2020,04,27,15,36,12.70
2020,04,27,15,37,12.60
2020,04,27,15,38,12.60
2020,04,27,15,39,12.60
2020,04,27,15,40,12.50
2020,04,27,15,41,12.40
2020,04,27,15,42,12.40
2020,04,27,15,43,12.40
2020,04,27,15,44,12.30
2020,04,27,15,45,12.40
2020,04,27,15,46,12.30
2020,04,27,15,47,12.30
2020,04,27,15,48,12.30
2020,04,27,15,49,12.30
2020,04,27,15,50,12.30
2020,04,27,15,51,12.30
2020,04,27,15,52,12.40
2020,04,27,15,53,12.50
2020,04,27,15,54,12.60
2020,04,27,15,55,12.80
2020,04,27,15,56,13.00
2020,04,27,15,57,13.20
2020,04,27,15,58,13.30
2020,04,27,15,59,13.40
2020,04,27,16,00,13.40
2020,04,27,16,01,13.40
2020,04,27,16,02,13.50
2020,04,27,16,03,13.50
2020,04,27,16,04,13.50
2020,04,27,16,05,13.60
2020,04,27,16,06,13.60
2020,04,27,16,07,13.50
2020,04,27,16,08,13.50
2020,04,27,16,09,13.50
2020,04,27,16,10,13.60
2020,04,27,16,11,13.60
2020,04,27,16,12,13.70
2020,04,27,16,13,13.80
2020,04,27,16,14,13.90
2020,04,27,16,15,14.00
2020,04,27,16,16,14.10
2020,04,27,16,17,14.20
2020,04,27,16,18,14.40
2020,04,27,16,19,14.50
2020,04,27,16,20,14.60
2020,04,27,16,21,14.70
2020,04,27,16,22,14.70
2020,04,27,16,23,14.80
2020,04,27,16,24,14.90
2020,04,27,16,25,14.90
2020,04,27,16,26,15.00
2020,04,27,16,27,15.00
2020,04,27,16,28,15.10
2020,04,27,16,29,15.10
2020,04,27,16,30,15.20
2020,04,27,16,31,15.30
2020,04,27,16,32,15.30
2020,04,27,16,33,15.40
2020,04,27,16,34,15.40
2020,04,27,16,35,15.40
2020,04,27,16,36,15.30
2020,04,27,16,37,15.30
2020,04,27,16,38,15.30
2020,04,27,16,39,15.20
2020,04,27,16,40,15.20
2020,04,27,16,41,15.10
2020,04,27,16,42,15.10
2020,04,27,16,43,15.10
2020,04,27,16,44,15.10
2020,04,27,16,45,15.10
2020,04,27,16,46,15.10
2020,04,27,16,47,15.20
2020,04,27,16,48,15.10
2020,04,27,16,49,15.10
2020,04,27,16,50,15.10
2020,04,27,16,51,15.10
2020,04,27,16,52,15.10
2020,04,27,16,53,15.10
2020,04,27,16,54,15.10
2020,04,27,16,55,15.10
2020,04,27,16,56,15.10
2020,04,27,16,57,15.10
2020,04,27,16,58,15.10
2020,04,27,16,59,15.10
2020,04,27,17,00,15.20
2020,04,27,17,01,15.10
2020,04,27,17,02,15.10
2020,04,27,17,03,15.10
2020,04,27,17,04,15.10
2020,04,27,17,05,15.00
2020,04,27,17,06,15.00
2020,04,27,17,07,14.90
2020,04,27,17,08,14.80
2020,04,27,17,09,14.80
2020,04,27,17,10,14.80
2020,04,27,17,11,14.70
2020,04,27,17,12,14.70
2020,04,27,17,13,14.70
2020,04,27,17,14,14.70
2020,04,27,17,15,14.60
2020,04,27,17,16,14.60
2020,04,27,17,17,14.60
2020,04,27,17,18,14.70
2020,04,27,17,19,14.70
2020,04,27,17,20,14.70
2020,04,27,17,21,14.70
2020,04,27,17,22,14.70
2020,04,27,17,23,14.70
2020,04,27,17,24,14.70
2020,04,27,17,25,14.80
2020,04,27,17,26,14.80
2020,04,27,17,27,14.80
2020,04,27,17,28,14.80
2020,04,27,17,29,14.80
2020,04,27,17,30,14.80
2020,04,27,17,31,14.80
2020,04,27,17,32,14.70
2020,04,27,17,33,14.70
2020,04,27,17,34,14.70
2020,04,27,17,35,14.70
2020,04,27,17,36,14.70
2020,04,27,17,37,14.70
2020,04,27,17,38,14.80
2020,04,27,17,39,14.80
2020,04,27,17,40,14.90
2020,04,27,17,41,15.00
2020,04,27,17,42,15.10
2020,04,27,17,43,15.10
2020,04,27,17,44,15.20
2020,04,27,17,45,15.20
2020,04,27,17,46,15.20
2020,04,27,17,47,15.10
2020,04,27,17,48,15.00
2020,04,27,17,49,15.00
2020,04,27,17,50,15.00
2020,04,27,17,51,15.10
2020,04,27,17,52,15.10
2020,04,27,17,53,15.10
2020,04,27,17,54,15.20
2020,04,27,17,55,15.20
2020,04,27,17,56,15.20
2020,04,27,17,57,15.10
2020,04,27,17,58,15.10
2020,04,27,17,59,15.00
2020,04,27,18,00,14.90
2020,04,27,18,01,14.80
2020,04,27,18,02,14.80
2020,04,27,18,03,14.80
2020,04,27,18,04,14.80
2020,04,27,18,05,14.80
2020,04,27,18,06,14.80
2020,04,27,18,07,14.80
2020,04,27,18,08,14.80
2020,04,27,18,09,14.80
2020,04,27,18,10,14.80
2020,04,27,18,11,14.80
2020,04,27,18,12,14.80
2020,04,27,18,13,14.90
2020,04,27,18,14,14.90
2020,04,27,18,15,14.90
2020,04,27,18,16,14.90
2020,04,27,18,17,14.90
2020,04,27,18,18,14.90
2020,04,27,18,19,14.90
2020,04,27,18,20,14.90
2020,04,27,18,21,15.00
2020,04,27,18,22,15.10
2020,04,27,18,23,15.00
2020,04,27,18,24,15.00
2020,04,27,18,25,14.90
2020,04,27,18,26,14.80
2020,04,27,18,27,14.80
2020,04,27,18,28,14.80
2020,04,27,18,29,14.80
2020,04,27,18,30,14.80
2020,04,27,18,31,14.70
2020,04,27,18,32,14.70
2020,04,27,18,33,14.60
2020,04,27,18,34,14.60
2020,04,27,18,35,14.60
2020,04,27,18,36,14.60
2020,04,27,18,37,14.60
2020,04,27,18,38,14.60
2020,04,27,18,39,14.60
2020,04,27,18,40,14.60
2020,04,27,18,41,14.60
2020,04,27,18,42,14.60
2020,04,27,18,43,14.60
2020,04,27,18,44,14.60
2020,04,27,18,45,14.60
2020,04,27,18,46,14.60
2020,04,27,18,47,14.50
2020,04,27,18,48,14.50
2020,04,27,18,49,14.50
2020,04,27,18,50,14.60
2020,04,27,18,51,14.60
2020,04,27,18,52,14.60
2020,04,27,18,53,14.60
2020,04,27,18,54,14.60
2020,04,27,18,55,14.50
2020,04,27,18,56,14.50
2020,04,27,18,57,14.50
2020,04,27,18,58,14.50
2020,04,27,18,59,14.60
2020,04,27,19,00,14.60
2020,04,27,19,01,14.60
2020,04,27,19,02,14.50
2020,04,27,19,03,14.50
2020,04,27,19,04,14.40
2020,04,27,19,05,14.40
2020,04,27,19,06,14.30
2020,04,27,19,07,14.30
2020,04,27,19,08,14.30
2020,04,27,19,09,14.30
2020,04,27,19,10,14.30
2020,04,27,19,11,14.30
2020,04,27,19,12,14.30
2020,04,27,19,13,14.30
2020,04,27,19,14,14.30
2020,04,27,19,15,14.30
2020,04,27,19,16,14.40
2020,04,27,19,17,14.40
2020,04,27,19,18,14.40
2020,04,27,19,19,14.30
2020,04,27,19,20,14.30
2020,04,27,19,21,14.40
2020,04,27,19,22,14.40
2020,04,27,19,23,14.40
2020,04,27,19,24,14.40
2020,04,27,19,25,14.40
2020,04,27,19,26,14.40
2020,04,27,19,27,14.40
2020,04,27,19,28,14.40
2020,04,27,19,29,14.40
2020,04,27,19,30,14.40
2020,04,27,19,31,14.40
2020,04,27,19,32,14.30
2020,04,27,19,33,14.30
2020,04,27,19,34,14.30
2020,04,27,19,35,14.30
2020,04,27,19,36,14.20
2020,04,27,19,37,14.20
2020,04,27,19,38,14.10
2020,04,27,19,39,14.10
2020,04,27,19,40,14.10
2020,04,27,19,41,14.10
2020,04,27,19,42,14.00
2020,04,27,19,43,14.00
2020,04,27,19,44,13.90
2020,04,27,19,45,13.90
2020,04,27,19,46,13.90
2020,04,27,19,47,13.80
2020,04,27,19,48,13.80
2020,04,27,19,49,13.70
2020,04,27,19,50,13.70
2020,04,27,19,51,13.70
2020,04,27,19,52,13.60
2020,04,27,19,53,13.60
2020,04,27,19,54,13.60
2020,04,27,19,55,13.50
2020,04,27,19,56,13.50
2020,04,27,19,57,13.50
2020,04,27,19,58,13.40
2020,04,27,19,59,13.40
2020,04,27,20,00,13.40
2020,04,27,20,01,13.40
2020,04,27,20,02,13.30
2020,04,27,20,03,13.30
2020,04,27,20,04,13.30
2020,04,27,20,05,13.30
2020,04,27,20,06,13.30
2020,04,27,20,07,13.30
2020,04,27,20,08,13.20
2020,04,27,20,09,13.20
2020,04,27,20,10,13.20
2020,04,27,20,11,13.10
2020,04,27,20,12,13.10
2020,04,27,20,13,13.10
2020,04,27,20,14,13.00
2020,04,27,20,15,13.00
2020,04,27,20,16,12.90
2020,04,27,20,17,12.90
2020,04,27,20,18,12.90
2020,04,27,20,19,12.80
2020,04,27,20,20,12.80
2020,04,27,20,21,12.80
2020,04,27,20,22,12.80
2020,04,27,20,23,12.70
2020,04,27,20,24,12.70
2020,04,27,20,25,12.70
2020,04,27,20,26,12.60
2020,04,27,20,27,12.60
2020,04,27,20,28,12.60
2020,04,27,20,29,12.50
2020,04,27,20,30,12.50
2020,04,27,20,31,12.40
2020,04,27,20,32,12.40
2020,04,27,20,33,12.30
2020,04,27,20,34,12.30
2020,04,27,20,35,12.30
2020,04,27,20,36,12.20
2020,04,27,20,37,12.20
2020,04,27,20,38,12.10
2020,04,27,20,39,12.10
2020,04,27,20,40,12.10
2020,04,27,20,41,12.00
2020,04,27,20,42,12.00
2020,04,27,20,43,11.90
2020,04,27,20,44,11.90
2020,04,27,20,45,11.80
2020,04,27,20,46,11.80
2020,04,27,20,47,11.70
2020,04,27,20,48,11.70
2020,04,27,20,49,11.70
2020,04,27,20,50,11.60
2020,04,27,20,51,11.60
2020,04,27,20,52,11.50
2020,04,27,20,53,11.40
2020,04,27,20,54,11.40
2020,04,27,20,55,11.30
2020,04,27,20,56,11.30
2020,04,27,20,57,11.30
2020,04,27,20,58,11.30
2020,04,27,20,59,11.30
2020,04,27,21,00,11.20
2020,04,27,21,01,11.20
2020,04,27,21,02,11.20
2020,04,27,21,03,11.10
2020,04,27,21,04,11.10
2020,04,27,21,05,11.10
2020,04,27,21,06,11.00
2020,04,27,21,07,11.00
2020,04,27,21,08,11.00
2020,04,27,21,09,11.00
2020,04,27,21,10,11.00
2020,04,27,21,11,10.90
2020,04,27,21,12,10.90
2020,04,27,21,13,10.80
2020,04,27,21,14,10.80
2020,04,27,21,15,10.70
2020,04,27,21,16,10.70
2020,04,27,21,17,10.70
2020,04,27,21,18,10.70
2020,04,27,21,19,10.60
2020,04,27,21,20,10.60
2020,04,27,21,21,10.60
2020,04,27,21,22,10.60
2020,04,27,21,23,10.60
2020,04,27,21,24,10.50
2020,04,27,21,25,10.50
2020,04,27,21,26,10.40
2020,04,27,21,27,10.40
2020,04,27,21,28,10.40
2020,04,27,21,29,10.40
2020,04,27,21,30,10.40
2020,04,27,21,31,10.30
2020,04,27,21,32,10.40
2020,04,27,21,33,10.40
2020,04,27,21,34,10.40
2020,04,27,21,35,10.30
2020,04,27,21,36,10.30
2020,04,27,21,37,10.30
2020,04,27,21,38,10.30
2020,04,27,21,39,10.30
2020,04,27,21,40,10.30
2020,04,27,21,41,10.20
2020,04,27,21,42,10.20
2020,04,27,21,43,10.20
2020,04,27,21,44,10.10
2020,04,27,21,45,10.10
2020,04,27,21,46,10.10
2020,04,27,21,47,10.00
2020,04,27,21,48,10.00
2020,04,27,21,49,9.90
2020,04,27,21,50,9.90
2020,04,27,21,51,9.90
2020,04,27,21,52,9.90
2020,04,27,21,53,9.90
2020,04,27,21,54,9.90
2020,04,27,21,55,9.90
2020,04,27,21,56,9.90
2020,04,27,21,57,9.90
2020,04,27,21,58,9.80
2020,04,27,21,59,9.80
2020,04,27,22,00,9.80
2020,04,27,22,01,9.70
2020,04,27,22,02,9.70
2020,04,27,22,03,9.70
2020,04,27,22,04,9.70
2020,04,27,22,05,9.70
2020,04,27,22,06,9.60
2020,04,27,22,07,9.60
2020,04,27,22,08,9.60
2020,04,27,22,09,9.70
2020,04,27,22,10,9.70
2020,04,27,22,11,9.60
2020,04,27,22,12,9.60
2020,04,27,22,13,9.60
2020,04,27,22,14,9.50
2020,04,27,22,15,9.50
2020,04,27,22,16,9.50
2020,04,27,22,17,9.50
2020,04,27,22,18,9.50
2020,04,27,22,19,9.50
2020,04,27,22,20,9.50
2020,04,27,22,21,9.40
2020,04,27,22,22,9.40
2020,04,27,22,23,9.40
2020,04,27,22,24,9.40
2020,04,27,22,25,9.40
2020,04,27,22,26,9.40
2020,04,27,22,27,9.40
2020,04,27,22,28,9.30
2020,04,27,22,29,9.30
2020,04,27,22,30,9.30
2020,04,27,22,31,9.30
2020,04,27,22,32,9.30
2020,04,27,22,33,9.20
2020,04,27,22,34,9.20
2020,04,27,22,35,9.20
2020,04,27,22,36,9.20
2020,04,27,22,37,9.20
2020,04,27,22,38,9.20
2020,04,27,22,39,9.20
2020,04,27,22,40,9.10
2020,04,27,22,41,9.20
2020,04,27,22,42,9.10
2020,04,27,22,43,9.10
2020,04,27,22,44,9.10
2020,04,27,22,45,9.10
2020,04,27,22,46,9.10
2020,04,27,22,47,9.10
2020,04,27,22,48,9.10
2020,04,27,22,49,9.00
2020,04,27,22,50,9.00
2020,04,27,22,51,9.00
2020,04,27,22,52,9.00
2020,04,27,22,53,8.90
2020,04,27,22,54,8.90
2020,04,27,22,55,8.90
2020,04,27,22,56,8.80
2020,04,27,22,57,8.80
2020,04,27,22,58,8.70
2020,04,27,22,59,8.70
2020,04,27,23,00,8.70
2020,04,27,23,01,8.70
2020,04,27,23,02,8.60
2020,04,27,23,03,8.60
2020,04,27,23,04,8.60
2020,04,27,23,05,8.60
2020,04,27,23,06,8.50
2020,04,27,23,07,8.50
2020,04,27,23,08,8.50
2020,04,27,23,09,8.50
2020,04,27,23,10,8.40
2020,04,27,23,11,8.40
2020,04,27,23,12,8.40
2020,04,27,23,13,8.40
2020,04,27,23,14,8.40
2020,04,27,23,15,8.40
2020,04,27,23,16,8.30
2020,04,27,23,17,8.30
2020,04,27,23,18,8.30
2020,04,27,23,19,8.30
2020,04,27,23,20,8.30
2020,04,27,23,21,8.30
2020,04,27,23,22,8.20
2020,04,27,23,23,8.20
2020,04,27,23,24,8.20
2020,04,27,23,25,8.20
2020,04,27,23,26,8.10
2020,04,27,23,27,8.10
2020,04,27,23,28,8.10
2020,04,27,23,29,8.10
2020,04,27,23,30,8.10
2020,04,27,23,31,8.10
2020,04,27,23,32,8.10
2020,04,27,23,33,8.10
2020,04,27,23,34,8.00
2020,04,27,23,35,8.00
2020,04,27,23,36,8.00
2020,04,27,23,37,8.00
2020,04,27,23,38,8.00
2020,04,27,23,39,7.90
2020,04,27,23,40,7.90
2020,04,27,23,41,7.90
2020,04,27,23,42,7.90
2020,04,27,23,43,7.80
2020,04,27,23,44,7.80
2020,04,27,23,45,7.80
2020,04,27,23,46,7.80
2020,04,27,23,47,7.80
2020,04,27,23,48,7.80
2020,04,27,23,49,7.70
2020,04,27,23,50,7.70
2020,04,27,23,51,7.70
2020,04,27,23,52,7.70
2020,04,27,23,53,7.70
2020,04,27,23,54,7.70
2020,04,27,23,55,7.70
2020,04,27,23,56,7.60
2020,04,27,23,57,7.60
2020,04,27,23,58,7.60
2020,04,27,23,59,7.60
